Regional Weather Roundup
Issued by NWS

Home | Current Version | Previous Version | Graphics & Text | Print | Product List | Glossary On
Versions: 1 2 3 4 5 6 7 8 9 10 11 12 13 14 15 16 17 18 19 20 21 22 23 24 25 26 27 28 29 30 31 32 33 34 35 36 37 38 39 40 41 42 43 44 45 46 47 48 49 50
000
ASUS43 KTOP 161808
RWRKS

WEATHER ROUNDUP FOR KANSAS
NATIONAL WEATHER SERVICE GOODLAND KS
1200 PM CST MON JAN 16 2017

NOTE:  "FAIR" INDICATES FEW OR NO CLOUDS BELOW 12,000 FEET WITH NO
SIGNIFICANT WEATHER AND/OR OBSTRUCTIONS TO VISIBILITY.

KSZ001>006-013>018-027>032-041>047-161900-
NORTHWEST KANSAS

CITY           SKY/WX    TMP DP  RH WIND       PRES   REMARKS
GOODLAND       LGT SNOW  32  32 100 N16       29.93F FOG     WCI  21
6HR MIN TEMP:  31; 6HR MAX TEMP:  32; 6HR PCP:  0.21;

HAYS           CLOUDY    32  31  96 N12       29.89S FOG     WCI  23
HILL CITY      LGT SNOW  33  33 100 N12       29.92S FOG     WCI  24
6HR MIN TEMP:  32; 6HR MAX TEMP:  33; 6HR PCP:  0.29;

RUSSELL        CLOUDY    32  31  96 N10       29.86F FOG     WCI  24
6HR MIN TEMP:  32; 6HR MAX TEMP:  32;

$$

KSZ061>065-074>080-084>089-161900-
SOUTHWEST KANSAS

CITY           SKY/WX    TMP DP  RH WIND       PRES   REMARKS
DODGE CITY     CLOUDY    32  31  96 NW9       29.90R
6HR MIN TEMP:  31; 6HR MAX TEMP:  32; 6HR PCP: TRACE;

ELKHART          N/A     33  26  75 NW7         N/A
GARDEN CITY    CLOUDY    33  31  92 NW13      29.91F FOG     WCI  24
GREAT BEND     CLOUDY    32  31  96 N9        29.88S FOG
LIBERAL        CLOUDY    34  28  80 MISG      29.95S
PRATT            N/A    N/A N/A N/A MISG        N/A
$$

KSZ066>073-081>083-090>101-161900-
SOUTHEAST KANSAS

CITY           SKY/WX    TMP DP  RH WIND       PRES   REMARKS
CHANUTE        CLOUDY    47  44  90 SW17      29.89F
6HR MIN TEMP:  47; 6HR MAX TEMP:  54; 6HR PCP:  0.03;

HUTCHINSON     CLOUDY    35  34  96 NW7       29.85F FOG
6HR MIN TEMP:  33; 6HR MAX TEMP:  36; 6HR PCP:  0.04;

MEDICINE LODGE   N/A     35  34  96 NW7       29.88S
NEWTON         LGT RAIN  36  36 100 SW13      29.84F WCI  27
PARSONS        CLOUDY    48  44  86 SW13      29.91F
6HR MIN TEMP:  48; 6HR MAX TEMP:  55; 6HR PCP:  0.02;

WICHITA INTL   LGT RAIN  38  37  97 SW10      29.86F FOG     WCI  31
6HR MIN TEMP:  37; 6HR MAX TEMP:  43; 6HR PCP:  0.08;

WICHITA JABRA  LGT RAIN  38  37  97 SW12      29.85F WCI  30
6HR MIN TEMP:  37; 6HR MAX TEMP:  45; 6HR PCP: TRACE;

WICHITA MCCONL LGT RAIN  37  37 100 SW14      29.85F WCI  29
WINFIELD       CLOUDY    40  37  89 SW15      29.90F WCI  32
6HR MIN TEMP:  39; 6HR MAX TEMP:  44;

$$

KSZ007>012-019>026-033>040-048>060-102>105-161900-
NORTHEAST KANSAS

CITY           SKY/WX    TMP DP  RH WIND       PRES   REMARKS
CONCORDIA      MIX PCPN  32  32 100 N8        29.86F FOG
6HR MIN TEMP:  32; 6HR MAX TEMP:  32; 6HR PCP:  0.52;

EMPORIA        CLOUDY    43  40  89 SW14      29.85F
6HR MIN TEMP:  38; 6HR MAX TEMP:  49; 6HR PCP:  0.06;

LAWRENCE       CLOUDY    45  45 100 E8        29.85F FOG
6HR MIN TEMP:  34; 6HR MAX TEMP:  45; 6HR PCP:  0.06;

MANHATTAN      FOG       37  37 100 NE7       29.84F VSB 1/4
6HR MIN TEMP:  34; 6HR MAX TEMP:  37; 6HR PCP:  0.25;

MARYSVILLE     LGT RAIN  32  32 100 NE3       29.86F
OLATHE IND     CLOUDY    51  50  96 S16       29.86F
6HR MIN TEMP:  37; 6HR MAX TEMP:  51; 6HR PCP:  0.16;

OLATHE EXE     CLOUDY    50  50 100 S5        29.86F
6HR MIN TEMP:  36; 6HR MAX TEMP:  50; 6HR PCP:  0.04;

SALINA         FOG       68  34  28 N7        29.86S VSB 1/2
TOPEKA BILLARD CLOUDY    43  40  89 E8        29.84F
6HR MIN TEMP:  35; 6HR MAX TEMP:  43; 6HR PCP:  0.10;

TOPEKA FORBES  PTSUNNY   48  46  93 SE9       29.83F
6HR MIN TEMP:  36; 6HR MAX TEMP:  48; 6HR PCP:  0.04;

$$




USA.gov is the U.S. government's official web portal to all federal, state and local government web resources and services.